This is the latest recevied weather packets stored in our database for station/object OE3PDB-3. If no packets are shown the sender has not sent any weather packets the latest 10 day(s).
| Time | Temp. | Humidity | Pressure | Rain* | Wind** | Luminosity | Snow |
|---|---|---|---|---|---|---|---|
| 1787415633 | 23.33° C | 42% | 1017.4 hPa | 0 mm | - | - | - |
| 1787415033 | 23.89° C | 40% | 1017.4 hPa | 0 mm | - | - | - |
| 1787414433 | 25° C | 38% | 1017.3 hPa | 0 mm | - | - | - |
| 1787413833 | 25.56° C | 37% | 1017.2 hPa | 0 mm | - | - | - |
| 1787413233 | 25.56° C | 37% | 1017.2 hPa | 0 mm | - | - | - |
| 1787412633 | 26.11° C | 36% | 1017 hPa | 0 mm | - | - | - |
| 1787412033 | 26.67° C | 36% | 1016.9 hPa | 0 mm | - | - | - |
| 1787411433 | 27.78° C | 35% | 1016.9 hPa | 0 mm | - | - | - |
| 1787410833 | 27.78° C | 34% | 1016.7 hPa | 0 mm | - | - | - |
| 1787410233 | 27.78° C | 35% | 1016.6 hPa | 0 mm | - | - | - |
| 1787409633 | 27.78° C | 34% | 1016.3 hPa | 0 mm | - | - | - |
| 1787409033 | 27.78° C | 35% | 1016.1 hPa | 0 mm | - | - | - |
| 1787408433 | 28.33° C | 35% | 1016.2 hPa | 0 mm | - | - | - |
| 1787407833 | 28.33° C | 36% | 1016.2 hPa | 0 mm | - | - | - |
| 1787407233 | 27.78° C | 36% | 1016.1 hPa | 0 mm | - | - | - |
| 1787406633 | 27.78° C | 37% | 1016.1 hPa | 0 mm | - | - | - |
| 1787406034 | 27.78° C | 38% | 1016 hPa | 0 mm | - | - | - |
| 1787405434 | 27.78° C | 38% | 1016 hPa | 0 mm | - | - | - |
| 1787404834 | 27.22° C | 38% | 1016.2 hPa | 0 mm | - | - | - |
| 1787404233 | 27.22° C | 40% | 1016 hPa | 0 mm | - | - | - |
| 1787403633 | 26.67° C | 41% | 1015.9 hPa | 0 mm | - | - | - |
| 1787403033 | 26.11° C | 42% | 1016 hPa | 0 mm | - | - | - |
| 1787402433 | 25.56° C | 43% | 1016 hPa | 0 mm | - | - | - |
| 1787401833 | 25° C | 44% | 1015.9 hPa | 0 mm | - | - | - |
| 1787401234 | 24.44° C | 45% | 1016.2 hPa | 0 mm | - | - | - |
* Rain latest hour (hover to see other rain measurements)
** Current wind speed in m/s (hover to see current wind gust speed)